Dewpoint
60 60 61 62 62 64 64 64 63 61 59 57 54 56 55 56 58 63 63 63 65 66 64 62 61 60 59 58 58 57 57 55 55 56 55 55 54 54 54 53 53 53 52
60 60 60 63 64 65 64 62 61 61 60 56 53 54 54 56 61 63 63 63 64 64 64 62 61 60 59 58 58 57 56 55 54 55 54 54 53 53 53 53 53 52 51
59 58 58 57 58 60 62 61 61 60 59 61 60 60 61 62 62 63 62 62 63 63 63 62 61 60 59 58 57 56 55 55 54 54 54 53 53 53 52 52 51 50 50
58 57 56 56 57 58 59 60 59 59 58 58 58 58 58 61 61 61 61 60 61 62 63 63 62 60 59 58 57 56 55 54 54 54 53 52 52 51 51 51 50 49 48
57 57 56 56 57 57 57 58 56 58 57 58 56 55 55 57 59 60 60 59 59 60 61 62 61 60 59 58 57 56 55 54 53 53 53 52 50 49 50 50 48 48 48
55 56 55 55 56 56 56 55 55 55 58 57 55 53 53 54 56 58 58 58 58 57 57 59 57 57 59 58 56 56 55 53 52 52 51 49 48 50 49 48 47 46 46
53 56 55 55 55 55 54 54 54 56 54 54 52 51 51 52 53 54 56 57 57 56 56 55 55 56 57 58 56 55 54 53 51 50 49 47 49 49 48 47 46 45 44
50 54 56 57 56 55 55 55 56 55 53 54 51 49 47 49 50 51 52 53 53 54 54 54 53 52 52 53 54 55 53 52 49 48 48 48 48 48 46 45 44 44 44
50 52 55 57 56 56 56 55 54 54 52 53 52 50 46 46 47 49 48 48 52 52 53 52 51 49 48 49 51 51 51 47 47 48 47 47 47 46 44 44 43 43 44
48 50 53 55 56 57 55 55 55 54 53 53 51 52 50 48 46 44 47 47 49 49 49 48 45 45 43 41 43 46 47 46 46 45 46 45 45 45 44 43 43 43 43
47 48 50 52 53 55 56 55 55 55 54 52 51 51 47 48 46 44 42 44 46 48 47 44 43 42 41 40 42 46 45 44 44 44 44 44 44 44 44 43 42 42 41
47 47 48 50 52 53 53 54 55 54 54 53 53 50 49 47 45 44 42 42 44 41 44 43 43 43 44 43 42 44 43 42 44 43 43 43 43 43 42 42 41 41 40
46 46 46 47 50 52 53 54 54 54 53 53 53 52 50 49 48 45 44 42 41 39 41 42 41 41 41 40 40 43 44 43 41 41 42 42 42 41 40 40 41 40 40
48 48 47 47 49 51 53 53 54 53 53 53 53 53 51 50 49 47 44 41 38 35 35 37 39 39 36 37 39 43 39 39 39 40 40 40 38 37 37 38 39 40 40
49 49 48 48 48 50 51 52 53 54 54 53 53 52 52 51 49 48 46 45 42 36 36 34 34 35 35 35 39 35 34 37 36 35 35 36 35 35 36 37 38 38 38
48 48 48 48 49 49 50 51 52 53 53 53 53 51 51 50 49 48 47 46 45 42 39 35 35 33 34 32 39 32 31 36 33 32 32 32 33 33 35 37 36 36 36
46 46 47 47 47 48 50 51 52 52 52 52 52 51 50 48 48 47 46 43 41 39 36 33 33 32 32 32 32 30 33 29 29 31 31 32 32 32 35 35 33 33 35
46 47 48 47 47 48 49 50 52 51 51 51 50 49 48 48 45 45 44 43 43 40 36 32 31 29 30 30 29 28 27 24 25 26 28 30 30 31 34 34 33 32 32
44 49 49 48 48 48 50 52 51 51 51 50 49 48 47 47 46 46 45 43 42 39 37 34 31 30 29 28 27 27 26 26 25 28 29 29 27 29 31 31 30 30 29
43 45 49 49 48 49 51 49 48 47 46 46 46 47 47 47 45 45 44 42 39 37 35 33 30 28 28 26 26 25 23 25 24 24 25 26 27 27 28 28 28 27 27
41 43 46 47 48 48 47 47 45 44 42 42 42 42 42 43 44 44 41 38 36 34 32 30 29 28 26 25 23 23 21 23 23 25 23 23 22 22 23 25 25 25 27
40 41 41 42 43 45 46 45 44 42 41 40 40 40 41 41 41 41 40 39 36 32 30 29 26 25 23 23 24 23 23 21 20 25 21 20 22 21 22 21 24 27 28
40 40 40 41 42 44 44 43 41 38 37 38 38 37 37 39 39 38 38 37 35 33 30 26 25 22 21 23 24 24 23 23 21 23 22 21 21 20 21 19 25 27 28
39 39 39 40 40 41 41 40 39 35 35 35 36 34 34 32 32 29 27 26 26 26 25 23 23 23 24 25 25 25 24 23 23 23 22 20 22 21 21 22 26 27 27
37 37 38 38 38 39 39 38 35 33 31 30 30 30 30 30 33 31 27 27 28 28 31 31 31 31 31 30 28 25 24 25 23 21 22 21 22 21 22 21 20 24 25
36 36 37 37 38 37 39 38 34 30 29 29 29 30 33 32 33 31 26 25 25 25 26 26 26 28 28 27 27 25 25 24 24 22 22 24 23 22 20 22 22 24 23
Lifted_Index
0 0 -0 -1 -1 -1 -2 -2 -2 -1 -1 1 5 6 7 6 4 3 2 2 2 2 2 3 5 6 6 7 7 8 8 9 9 9 9 9 9 9 9 9 9 9 9
0 0 1 0 -0 -1 -1 -1 -1 -1 -1 1 4 5 5 5 3 2 2 2 2 2 3 3 5 5 6 7 7 8 8 9 9 9 9 9 10 10 10 10 10 10 10
1 1 2 2 1 1 0 -0 -0 -0 0 2 3 4 4 3 2 2 2 2 2 2 3 4 4 5 6 7 7 8 8 9 9 10 10 10 10 10 10 10 11 11 11
3 3 3 3 3 2 2 2 1 1 2 2 3 3 3 2 2 1 1 2 2 3 3 4 4 5 6 6 7 8 9 9 10 10 10 10 11 11 11 11 11 12 12
4 3 3 3 4 4 4 3 2 2 2 3 3 3 2 2 2 1 1 2 2 3 3 4 5 5 6 6 7 8 9 9 10 10 11 11 11 11 11 12 12 12 12
5 4 3 3 4 4 4 3 3 2 2 2 2 2 2 2 2 2 2 2 2 3 3 4 5 6 6 6 7 8 9 10 10 11 11 12 12 12 12 12 13 13 13
6 5 3 3 3 3 3 3 3 2 2 2 2 2 2 2 2 2 2 2 2 3 3 4 5 6 6 6 7 8 9 10 11 12 12 13 12 12 13 13 13 14 14
7 6 4 3 2 2 2 3 2 2 2 2 2 3 3 3 3 3 3 3 2 3 4 4 5 6 6 6 7 8 10 11 12 12 13 13 13 13 13 14 14 14 14
7 6 5 3 2 2 2 2 2 2 2 2 2 2 3 3 3 4 4 3 3 4 4 5 5 6 6 7 7 8 10 11 12 13 13 13 13 13 14 14 14 15 15
7 7 5 4 3 2 2 2 2 2 2 2 2 2 3 3 4 4 4 3 4 4 4 5 5 6 6 7 8 8 9 11 12 13 13 13 13 14 14 14 15 15 15
7 7 6 5 4 3 2 2 2 2 2 2 2 2 2 3 3 4 4 3 4 4 4 5 5 6 7 7 8 9 9 10 12 13 14 14 14 14 14 15 15 16 16
6 6 6 6 5 4 3 2 2 2 2 2 2 2 2 2 3 3 3 3 3 4 4 5 6 6 7 8 8 9 10 11 13 14 14 14 14 14 15 15 16 16 16
5 6 6 6 6 5 4 3 2 2 2 2 2 2 2 2 2 2 3 3 3 3 4 5 6 7 7 8 8 9 10 12 14 15 15 15 16 16 16 17 17 16 16
5 5 6 6 6 5 4 3 2 2 2 2 2 2 2 1 1 2 2 3 2 3 3 5 6 7 7 8 9 10 11 13 15 16 16 16 16 17 18 18 18 17 17
6 6 6 6 5 5 4 3 2 2 1 1 1 1 1 1 1 2 2 3 2 2 3 4 5 6 6 7 9 11 13 14 15 16 16 16 17 18 19 19 19 19 19
6 6 5 5 5 5 4 3 2 1 1 1 1 1 1 1 1 2 2 2 2 2 3 4 4 5 6 8 10 11 13 15 15 16 16 16 18 19 20 20 19 19 19
6 5 5 5 5 4 4 3 2 1 1 0 0 0 1 1 1 1 2 2 2 2 3 3 4 5 6 8 10 12 13 14 15 15 16 17 19 19 20 20 20 19 19
5 5 4 4 4 4 3 3 1 1 0 0 -0 0 0 1 1 1 1 2 2 2 3 3 4 5 7 9 10 11 12 14 14 15 16 18 19 19 19 19 19 19 19
5 4 3 3 3 3 3 2 1 1 0 -0 -0 0 0 1 1 1 2 2 2 3 3 4 4 5 6 8 9 10 12 13 14 16 17 18 19 19 18 19 19 19 19
4 4 3 3 3 3 2 1 1 1 0 0 0 0 1 1 1 1 2 2 3 3 4 4 4 5 6 8 9 10 11 13 15 16 18 18 18 18 18 18 18 18 19
4 4 3 3 3 2 2 1 1 1 1 0 1 1 1 1 1 2 2 2 3 4 4 4 5 6 7 8 10 11 12 13 15 16 17 17 17 17 17 18 18 18 18
4 4 4 3 3 2 2 1 1 1 1 1 2 2 2 2 2 3 3 3 4 5 5 6 6 8 9 10 12 13 13 14 14 15 16 16 16 16 17 18 18 18 18
5 4 4 4 3 2 2 2 2 1 1 2 2 2 3 3 4 4 5 5 6 7 8 9 9 10 12 13 13 14 14 14 14 15 15 14 15 16 17 18 18 18 18
5 5 5 4 3 3 2 3 2 2 2 2 3 3 3 4 6 7 8 9 9 10 11 12 13 13 14 14 14 14 13 13 13 15 15 14 14 15 16 17 18 18 18
6 6 5 5 4 4 4 3 3 2 2 3 4 5 5 6 9 10 11 11 12 12 13 13 14 14 14 14 14 13 12 11 11 13 14 14 14 15 15 16 17 18 18
6 6 6 5 5 5 5 4 3 3 3 3 5 6 8 9 11 12 13 13 12 13 13 13 13 14 14 14 14 14 12 10 9 11 13 14 14 14 14 15 17 17 18